Flag for U.S.A. Weather past 2 weeks in Metlakatla, Alaska, U.S.A.

Now
57 °F

Light rain. Mostly cloudy.


Feels Like: 54 °F
Forecast: 54 / 59 °F
Wind: 14 mph from Southeast

Location: Annette Island

Current Time: Aug 30, 2015 at 8:36:01 AM

Latest Report: Aug 30, 2015 at 7:53 AM


Visibility: 10 mi

Pressure: 29.28 "Hg

Humidity: 81%

Dew point: 51 °F

Location of MetlakatlaLocation

Historic Weather in Metlakatla — Graph

°F

Metlakatla temperature yesterday

Maximum temperature yesterday: 60 °F (at 3:53 PM)
Minimum temperature yesterday: 54 °F (at 11:53 PM)
Average temperature yesterday: 57 °F

Past Weeks' High & Low Weather Summary

 TemperatureHumidityPressure
High73 °F (Aug 26, 1:53 PM)100% (Aug 16, 1:53 AM)30.32 "Hg (Aug 16, 1:53 AM)
Low50 °F (Aug 21, 2:53 AM)48% (Aug 26, 3:53 PM)29.24 "Hg (Aug 29, 2:00 PM)
Average59 °F87%29.96 "Hg
* Reported Aug 15 6:53 AM — Aug 30 6:53 AM, Metlakatla, Weather by CustomWeather, © 2015

Note: Actual official high and low records may vary slightly from our data, if they occured in-between our weather recording intervals... More about our weather records

Advertising

Metlakatla weather history for previous 24 hours

 ConditionsComfort  
Time TempWeatherWind HumidityBarometerVisibility
6:53 AM
Sun, Aug 30
56 °FLight rain. More clouds than sun.9 mph84%29.31 "Hg10 mi
5:53 AM55 °FLight rain. Mostly cloudy.9 mph87%29.33 "Hg10 mi
4:53 AM54 °FPassing clouds.8 mph90%29.34 "Hg10 mi
3:53 AM55 °FLight rain. Partly cloudy.9 mph90%29.34 "Hg10 mi
2:53 AM55 °FLight rain. Passing clouds.8 mph93%29.34 "Hg10 mi
1:53 AM56 °FLight rain. Mostly cloudy.7 mph90%29.33 "Hg10 mi
12:53 AM55 °FMostly cloudy.6 mph96%29.33 "Hg10 mi
11:53 PM
Sat, Aug 29
54 °FPassing clouds.7 mph97%29.33 "Hg10 mi
10:53 PM55 °FMostly cloudy.7 mph96%29.32 "Hg10 mi
9:53 PM55 °FPassing clouds.6 mph96%29.31 "Hg10 mi
8:53 PM55 °FPartly cloudy.5 mph100%29.30 "Hg10 mi
7:53 PM56 °FOvercast.3 mph93%29.28 "Hg10 mi
7:00 PM56 °FMostly cloudy.6 mph97%29.27 "Hg10 mi
5:53 PM58 °FLight rain. Overcast.6 mph93%29.26 "Hg10 mi
4:53 PM60 °FOvercast.5 mph90%29.25 "Hg10 mi
3:53 PM60 °FOvercast.5 mph90%29.24 "Hg10 mi
2:53 PM59 °FLight rain. Cloudy.3 mph90%29.24 "Hg10 mi
2:00 PM59 °FPartly sunny.6 mph90%29.24 "Hg10 mi
12:53 PM58 °FLight rain. Cloudy.7 mph93%29.26 "Hg10 mi
11:53 AM58 °FRain. Overcast.9 mph93%29.26 "Hg8 mi
10:53 AM59 °FLight rain. More clouds than sun.12 mph87%29.27 "Hg8 mi
9:53 AM58 °FLight rain. Cloudy.10 mph90%29.28 "Hg10 mi
8:53 AM59 °FLight rain. Mostly cloudy.14 mph81%29.28 "Hg10 mi
Weather by CustomWeather, © 2015

See weather overviewHow to use our weather pages